Back to catalog

SL-8 DEB

AlivePO
NORAD 29290·DEBRIS·🇷🇺 Russia

Launched Dec 17, 1981 from Plesetsk Cosmodrome

Loading…

Next Passes (next 24 hours)

TLE

AgingSource: Space-Track

Epoch: Sep 7, 2026, 12:13 UTC

1 29290U 81120U   26250.50948128  .00000043  00000-0  36235-3 0  9995
2 29290  82.9640 317.5582 0028183  87.0773 337.3742 12.10497535574190

Track SL-8 DEB in real time with AllMySat

Download on the App Store